Tracking 19564 objects as of 18-Mar-2019
HD Live streaming from Space Station
objects crossing your sky now

TDRS 5

Track TDRS 5 now!
TDRS 5 is classified as:


NORAD ID: 21639
Int'l Code: 1991-054B
Perigee: 35,687.8 km
Apogee: 35,902.9 km
Inclination: 14.7 °
Period: 1,436.2 minutes
Semi major axis: 42166 km
RCS: 20.8608 m2 (large)
Launch date: August 2, 1991
Source: United States (US)
Launch site: AIR FORCE EASTERN TEST RANGE (AFETR)

Tracking and communications with space shuttle, other missions; leased access to C-band by Americom.
aabbcc
Your satellite tracking list
Your tracking list is empty




NASA's NSSDC Master Catalog

Two Line Element Set (TLE):
1 21639U 91054B   19076.77226074  .00000075  00000-0  00000+0 0  9999
2 21639  14.6593  14.9150 0025505 345.0062 285.5698  1.00266066101156
Source of the keplerian elements: AFSPC